SCOUT G-1 DEB, 18525

Orbit data source: Space-Track

SCOUT G-1 DEB, 18525 is space debris in LEO originally from a launch on Fri, 14 Nov 1986 UTC launched from the Air Force Western Test Range (AFWTR). Debris objects in space refer to the collection of defunct objects orbiting the Earth. Examples of debris include non-operational satellites, rocket bodies, and fragments generated from explosions, collisions, or faulty payload assembly.

Loading next visibility...
Identifier
18525, 1986-088D
Orbit
LEO
Country
Flag of USUS
Related business
Manufacturer
Unknown
Mission
Spacecraft
Bus & Motor
Unknown
Mass
2 kg wet, 2 kg dry
Launch date (UTC)
1986-11-14 (40 years ago)
Launch vehicle
Unknown
Launch site
Air Force Western Test Range (AFWTR)
Object type
Payload
Rocket body
Debris
Shape & HBR
DISK + CABLE, 0.1 m
Radar Cross Section
Medium (>0.1 m² and <1 m²)

Expand to show TLE details & history
Last TLE update: 11 hours ago

TLE from 11 hours ago
0 SCOUT G-1 DEB
1 18525U 86088D   26235.77938125  .00000133  00000-0  10582-3 0  9997
2 18525  89.9218 342.3505 0003526 206.5597 306.1508 13.86421655  7610
Epoch: 2026-08-23T18:42Z
TLE epoch observation values (Epoch: 2026-08-23T18:42:18.539Z)
Latitude
27.35933°
Longitude
-90.33754°
Altitude
943.121 km
Speed
7.383 km/s
True Right ascension
10h 49m 14s
True Declination
27° 13' 22"
Sunlit
Object was in daylight at epoch
Visualization orbit readout
Latitude
Unknown
Longitude
Unknown
Altitude
Unknown
Speed
Unknown
Apparent Right ascension
Unknown
Apparent Declination
Unknown
Sunlit
N/A
Visualization observer readout
Local Sidereal Time
20:53:46
Azimuth
Unknown
Elevation
Unknown
Doppler factor
Unknown
Orbital elements
Apogee altitude
940.775 km
Perigee altitude
935.615 km
Semi-major axis
7,316.332 km
Eccentricity
0.00035
Inclination
89.9218°
RAAN
342.3505°
Arg. of periapsis
206.5597°
True anomaly
306.11817°
Mean anomaly
306.1508°
Eccentric anomaly
306.13448°
Mean motion
3.46819 °/min
Orbital period
103.8 mins
BSTAR
0.00010582
Loading maneuver chart data...
Computing Atmospheric mass density...
Loading historical data...
Loading historical data...
Loading historical data...
Loading historical data...
Loading historical data...
Loading historical data...
Loading historical data...
Other satellites on launch #88 in the year 1986 (1986-11-14 UTC)

Documentation

Showing up to 5 results
|